| time (UTC) | temp F | wind direction | speed MPH | gust MPH | rain 1hr in | rain 24hr in | rain mn in | humidity % | barometer mb |
| 20260831141507 | 66 | 273 | 1.0 | 7.0 | 0.00 | 0.30 | 0.30 | 84 | 1012.1 |
| 20260831141005 | 65 | 247 | 2.0 | 4.0 | 0.00 | 0.30 | 0.30 | 85 | 1011.9 |
| 20260831140505 | 65 | 250 | 0.0 | 6.0 | 0.00 | 0.30 | 0.30 | 85 | 1011.7 |
| 20260831140007 | 65 | 247 | 2.0 | 9.0 | 0.00 | 0.30 | 0.30 | 85 | 1011.6 |
| 20260831135503 | 64 | 292 | 0.0 | 9.0 | 0.00 | 0.30 | 0.30 | 86 | 1011.4 |
| 20260831135003 | 64 | 259 | 2.0 | 8.0 | 0.00 | 0.30 | 0.30 | 87 | 1011.3 |
| 20260831134502 | 64 | 250 | 0.0 | 4.0 | 0.00 | 0.30 | 0.30 | 87 | 1011.2 |
| 20260831134001 | 64 | 240 | 0.0 | 8.0 | 0.00 | 0.30 | 0.30 | 88 | 1011.1 |
| 20260831133500 | 64 | 274 | 3.0 | 8.0 | 0.00 | 0.30 | 0.30 | 89 | 1011.0 |
| 20260831133103 | 64 | 278 | 0.0 | 8.0 | 0.00 | 0.30 | 0.30 | 89 | 1011.0 |
| 20260831132559 | 63 | 254 | 2.0 | 8.0 | 0.00 | 0.30 | 0.30 | 90 | 1010.8 |
| 20260831132058 | 63 | 276 | 4.0 | 8.0 | 0.00 | 0.30 | 0.30 | 90 | 1010.7 |
| 20260831131604 | 63 | 278 | 1.0 | 8.0 | 0.00 | 0.30 | 0.30 | 91 | 1010.7 |
| 20260831131057 | 63 | 271 | 4.0 | 8.0 | 0.00 | 0.30 | 0.30 | 91 | 1010.6 |
| 20260831130557 | 63 | 276 | 2.0 | 7.0 | 0.00 | 0.30 | 0.30 | 92 | 1010.5 |
| 20260831130104 | 63 | 278 | 3.0 | 9.0 | 0.00 | 0.30 | 0.30 | 92 | 1010.6 |
| 20260831125556 | 63 | 266 | 5.0 | 9.0 | 0.00 | 0.30 | 0.30 | 92 | 1010.5 |
| 20260831125056 | 63 | 273 | 4.0 | 10.0 | 0.00 | 0.30 | 0.30 | 92 | 1010.5 |
| 20260831124602 | 63 | 260 | 2.0 | 10.0 | 0.00 | 0.30 | 0.30 | 93 | 1010.4 |
| 20260831124055 | 62 | 285 | 2.0 | 10.0 | 0.00 | 0.30 | 0.30 | 93 | 1010.4 |
| 20260831123553 | 62 | 255 | 3.0 | 9.0 | 0.00 | 0.30 | 0.30 | 93 | 1010.4 |
| 20260831123055 | 62 | 246 | 4.0 | 9.0 | 0.00 | 0.30 | 0.30 | 93 | 1010.2 |
| 20260831122550 | 62 | 282 | 3.0 | 8.0 | 0.00 | 0.30 | 0.30 | 94 | 1010.1 |
| 20260831122049 | 62 | 272 | 2.0 | 8.0 | 0.00 | 0.30 | 0.30 | 94 | 1009.9 |
| 20260831121550 | 62 | 286 | 3.0 | 11.0 | 0.00 | 0.30 | 0.30 | 94 | 1010.0 |
| 20260831121048 | 62 | 295 | 5.0 | 11.0 | 0.00 | 0.30 | 0.30 | 94 | 1010.0 |
| 20260831120549 | 63 | 259 | 5.0 | 11.0 | 0.00 | 0.30 | 0.30 | 94 | 1009.9 |
| 20260831120046 | 63 | 287 | 5.0 | 11.0 | 0.00 | 0.30 | 0.30 | 94 | 1009.8 |
| 20260831115544 | 63 | 241 | 6.0 | 11.0 | 0.00 | 0.30 | 0.30 | 94 | 1009.8 |
| 20260831115043 | 63 | 284 | 5.0 | 11.0 | 0.00 | 0.30 | 0.30 | 94 | 1009.6 |
| 20260831114551 | 63 | 255 | 6.0 | 11.0 | 0.00 | 0.30 | 0.30 | 94 | 1009.6 |
| 20260831114041 | 63 | 276 | 6.0 | 11.0 | 0.00 | 0.30 | 0.30 | 94 | 1009.4 |
| 20260831113540 | 63 | 271 | 4.0 | 11.0 | 0.00 | 0.30 | 0.30 | 94 | 1009.4 |
| 20260831113041 | 63 | 253 | 6.0 | 11.0 | 0.00 | 0.30 | 0.30 | 94 | 1009.3 |
| 20260831112538 | 64 | 274 | 6.0 | 12.0 | 0.00 | 0.30 | 0.30 | 93 | 1009.2 |
| 20260831112036 | 64 | 265 | 5.0 | 12.0 | 0.00 | 0.30 | 0.30 | 93 | 1009.0 |
| 20260831111535 | 64 | 270 | 5.0 | 10.0 | 0.00 | 0.30 | 0.30 | 93 | 1008.9 |
| 20260831111033 | 64 | 281 | 5.0 | 13.0 | 0.00 | 0.30 | 0.30 | 93 | 1008.9 |
| 20260831110533 | 64 | 281 | 6.0 | 13.0 | 0.00 | 0.30 | 0.30 | 93 | 1008.8 |
| 20260831110032 | 64 | 263 | 6.0 | 13.0 | 0.00 | 0.30 | 0.30 | 93 | 1008.8 |
| 20260831105532 | 64 | 297 | 5.0 | 12.0 | 0.00 | 0.30 | 0.30 | 93 | 1008.7 |
| 20260831105031 | 64 | 285 | 6.0 | 12.0 | 0.00 | 0.30 | 0.30 | 93 | 1008.6 |
| 20260831104537 | 65 | 250 | 5.0 | 12.0 | 0.00 | 0.30 | 0.30 | 93 | 1008.6 |
| 20260831104029 | 65 | 269 | 6.0 | 12.0 | 0.00 | 0.30 | 0.30 | 93 | 1008.6 |
| 20260831103528 | 65 | 288 | 7.0 | 14.0 | 0.00 | 0.30 | 0.30 | 93 | 1008.5 |
| 20260831103027 | 65 | 275 | 6.0 | 15.0 | 0.00 | 0.30 | 0.30 | 93 | 1008.5 |
| 20260831102529 | 65 | 247 | 8.0 | 15.0 | 0.00 | 0.30 | 0.30 | 93 | 1008.5 |
| 20260831102026 | 65 | 315 | 6.0 | 19.0 | 0.00 | 0.30 | 0.30 | 93 | 1008.5 |
| 20260831101526 | 65 | 315 | 8.0 | 19.0 | 0.00 | 0.30 | 0.30 | 93 | 1008.4 |
| 20260831101025 | 65 | 282 | 7.0 | 16.0 | 0.00 | 0.30 | 0.30 | 94 | 1008.3 |
| 20260831100524 | 65 | 283 | 8.0 | 18.0 | 0.00 | 0.30 | 0.30 | 94 | 1008.4 |
| 20260831100023 | 65 | 273 | 9.0 | 18.0 | 0.00 | 0.30 | 0.30 | 94 | 1008.4 |
| 20260831095524 | 65 | 242 | 7.0 | 14.0 | 0.00 | 0.30 | 0.30 | 94 | 1008.3 |
| 20260831095021 | 66 | 269 | 8.0 | 15.0 | 0.00 | 0.30 | 0.30 | 94 | 1008.2 |
| 20260831094520 | 66 | 276 | 6.0 | 15.0 | 0.00 | 0.30 | 0.30 | 93 | 1008.0 |
| 20260831094020 | 66 | 263 | 8.0 | 13.0 | 0.00 | 0.30 | 0.30 | 93 | 1008.0 |
| 20260831093526 | 66 | 273 | 7.0 | 16.0 | 0.01 | 0.30 | 0.30 | 93 | 1007.9 |
| 20260831093021 | 66 | 268 | 8.0 | 16.0 | 0.01 | 0.30 | 0.30 | 93 | 1007.8 |
| 20260831092517 | 66 | 284 | 7.0 | 15.0 | 0.01 | 0.30 | 0.30 | 93 | 1007.6 |
| 20260831092018 | 66 | 279 | 7.0 | 16.0 | 0.01 | 0.30 | 0.30 | 93 | 1007.6 |
| 20260831091513 | 66 | 263 | 6.0 | 16.0 | 0.01 | 0.30 | 0.30 | 93 | 1007.5 |
| 20260831091012 | 66 | 279 | 6.0 | 14.0 | 0.01 | 0.30 | 0.30 | 93 | 1007.3 |
| 20260831090513 | 67 | 283 | 5.0 | 11.0 | 0.01 | 0.30 | 0.30 | 93 | 1007.3 |
| 20260831090011 | 67 | 336 | 5.0 | 11.0 | 0.01 | 0.30 | 0.30 | 93 | 1007.3 |
| 20260831085510 | 67 | 290 | 6.0 | 16.0 | 0.01 | 0.30 | 0.30 | 93 | 1007.2 |
| 20260831085009 | 67 | 294 | 6.0 | 16.0 | 0.01 | 0.30 | 0.30 | 93 | 1007.2 |
| 20260831084507 | 68 | 269 | 6.0 | 14.0 | 0.01 | 0.30 | 0.30 | 94 | 1007.2 |
| 20260831084006 | 68 | 268 | 8.0 | 15.0 | 0.01 | 0.30 | 0.30 | 93 | 1007.0 |
| 20260831083504 | 68 | 279 | 8.0 | 15.0 | 0.00 | 0.28 | 0.28 | 94 | 1007.0 |
| 20260831083003 | 69 | 269 | 7.0 | 15.0 | 0.00 | 0.28 | 0.28 | 93 | 1007.0 |
| 20260831082502 | 69 | 268 | 8.0 | 16.0 | 0.00 | 0.28 | 0.28 | 94 | 1007.0 |
| 20260831082001 | 69 | 269 | 8.0 | 16.0 | 0.00 | 0.28 | 0.28 | 94 | 1007.0 |
| 20260831081601 | 70 | 262 | 7.0 | 14.0 | 0.00 | 0.28 | 0.28 | 94 | 1006.9 |
| 20260831081058 | 70 | 259 | 5.0 | 14.0 | 0.00 | 0.28 | 0.28 | 94 | 1006.9 |
| 20260831080556 | 71 | 244 | 5.0 | 14.0 | 0.00 | 0.28 | 0.28 | 95 | 1007.0 |
| 20260831080110 | 71 | 273 | 5.0 | 12.0 | 0.00 | 0.28 | 0.28 | 95 | 1006.9 |
| 20260831075557 | 72 | 261 | 5.0 | 12.0 | 0.00 | 0.28 | 0.28 | 95 | 1006.8 |
| 20260831075054 | 72 | 280 | 2.0 | 6.0 | 0.00 | 0.28 | 0.28 | 95 | 1006.8 |
| 20260831074602 | 72 | 224 | 2.0 | 6.0 | 0.00 | 0.28 | 0.28 | 95 | 1006.8 |
| 20260831074054 | 72 | 208 | 2.0 | 5.0 | 0.00 | 0.28 | 0.28 | 95 | 1006.6 |
| 20260831073554 | 72 | 200 | 2.0 | 4.0 | 0.00 | 0.28 | 0.28 | 95 | 1006.4 |
| 20260831073053 | 72 | 207 | 0.0 | 2.0 | 0.00 | 0.28 | 0.28 | 95 | 1006.0 |
| 20260831072553 | 72 | 207 | 0.0 | 2.0 | 0.00 | 0.28 | 0.28 | 95 | 1006.1 |
| 20260831072052 | 72 | 208 | 0.0 | 3.0 | 0.00 | 0.28 | 0.28 | 95 | 1006.0 |
| 20260831071604 | 72 | 207 | 1.0 | 3.0 | 0.00 | 0.28 | 0.28 | 95 | 1005.9 |
| 20260831071052 | 73 | 207 | 0.0 | 4.0 | 0.00 | 0.28 | 0.28 | 95 | 1005.8 |
| 20260831070551 | 73 | 208 | 2.0 | 4.0 | 0.00 | 0.28 | 0.28 | 95 | 1006.3 |
| 20260831070052 | 73 | 209 | 1.0 | 3.0 | 0.00 | 0.28 | 0.28 | 95 | 1006.3 |
| 20260831065551 | 73 | 209 | 0.0 | 0.0 | 0.00 | 0.28 | 0.28 | 94 | 1006.3 |
| 20260831065051 | 73 | 209 | 0.0 | 3.0 | 0.00 | 0.28 | 0.28 | 94 | 1006.3 |
| 20260831064550 | 73 | 209 | 0.0 | 4.0 | 0.00 | 0.28 | 0.28 | 94 | 1006.4 |
| 20260831064050 | 73 | 208 | 1.0 | 5.0 | 0.00 | 0.28 | 0.28 | 94 | 1006.3 |
| 20260831063550 | 73 | 213 | 1.0 | 5.0 | 0.00 | 0.28 | 0.28 | 94 | 1006.3 |
| 20260831063049 | 73 | 245 | 0.0 | 5.0 | 0.00 | 0.28 | 0.28 | 94 | 1006.2 |
| 20260831062553 | 73 | 233 | 2.0 | 7.0 | 0.00 | 0.28 | 0.28 | 94 | 1006.3 |
| 20260831062049 | 73 | 225 | 3.0 | 9.0 | 0.15 | 0.28 | 0.28 | 94 | 1006.1 |
| 20260831061549 | 73 | 163 | 5.0 | 9.0 | 0.24 | 0.28 | 0.28 | 94 | 1006.3 |
| 20260831061049 | 73 | 196 | 3.0 | 10.0 | 0.24 | 0.28 | 0.28 | 94 | 1006.3 |
| 20260831060549 | 72 | 167 | 3.0 | 11.0 | 0.28 | 0.28 | 0.28 | 94 | 1006.2 |
| 20260831060100 | 72 | 205 | 1.0 | 7.0 | 0.28 | 0.28 | 0.28 | 94 | 1006.2 |
| 20260831055549 | 72 | 167 | 2.0 | 8.0 | 0.28 | 0.28 | 0.28 | 94 | 1006.3 |
| 20260831055048 | 72 | 173 | 1.0 | 8.0 | 0.28 | 0.28 | 0.28 | 94 | 1006.4 |
| 20260831054548 | 73 | 144 | 3.0 | 8.0 | 0.28 | 0.28 | 0.28 | 94 | 1006.3 |
| 20260831054048 | 73 | 185 | 2.0 | 15.0 | 0.28 | 0.28 | 0.28 | 94 | 1006.3 |
| 20260831053547 | 73 | 211 | 8.0 | 15.0 | 0.28 | 0.28 | 0.28 | 94 | 1005.9 |
| 20260831053055 | 73 | 134 | 3.0 | 7.0 | 0.28 | 0.28 | 0.28 | 93 | 1006.1 |
| 20260831052545 | 73 | 216 | 1.0 | 9.0 | 0.28 | 0.28 | 0.28 | 92 | 1006.4 |
| 20260831052042 | 73 | 329 | 4.0 | 9.0 | 0.13 | 0.13 | 0.13 | 92 | 1006.5 |
| 20260831051544 | 73 | 66 | 4.0 | 8.0 | 0.05 | 0.05 | 0.05 | 91 | 1004.8 |
| 20260831051040 | 74 | 133 | 2.0 | 6.0 | 0.04 | 0.04 | 0.04 | 90 | 1005.2 |
| 20260831050540 | 74 | 148 | 2.0 | 7.0 | 0.00 | 0.00 | 0.00 | 90 | 1005.5 |
| 20260831050057 | 74 | 157 | 3.0 | 7.0 | 0.00 | 0.00 | 0.00 | 89 | 1005.2 |
| 20260831045537 | 74 | 159 | 3.0 | 7.0 | 0.00 | 0.00 | 0.00 | 89 | 1005.5 |
| 20260831045038 | 74 | 155 | 0.0 | 5.0 | 0.00 | 0.00 | 0.00 | 89 | 1005.7 |
| 20260831044537 | 74 | 155 | 2.0 | 7.0 | 0.00 | 0.00 | 0.00 | 89 | 1005.6 |
| 20260831044037 | 74 | 141 | 2.0 | 7.0 | 0.00 | 0.00 | 0.00 | 89 | 1005.5 |
| 20260831043538 | 74 | 173 | 1.0 | 7.0 | 0.00 | 0.00 | 0.00 | 89 | 1005.6 |
| 20260831043043 | 74 | 121 | 4.0 | 7.0 | 0.00 | 0.00 | 0.00 | 89 | 1005.5 |
| 20260831042537 | 74 | 161 | 2.0 | 5.0 | 0.00 | 0.00 | 0.00 | 89 | 1005.6 |
| 20260831042037 | 74 | 153 | 2.0 | 7.0 | 0.00 | 0.00 | 0.00 | 89 | 1005.4 |
| 20260831041551 | 74 | 124 | 1.0 | 8.0 | 0.00 | 0.00 | 0.00 | 89 | 1005.3 |
| 20260831041037 | 74 | 158 | 3.0 | 8.0 | 0.00 | 0.00 | 0.00 | 89 | 1005.2 |
| 20260831040536 | 74 | 153 | 2.0 | 7.0 | 0.00 | 0.00 | 0.00 | 89 | 1005.1 |
| 20260831040036 | 74 | 129 | 2.0 | 8.0 | 0.00 | 0.00 | 0.00 | 89 | 1005.1 |
| 20260831035539 | 74 | 137 | 3.0 | 8.0 | 0.00 | 0.00 | 0.00 | 89 | 1005.1 |
| 20260831035035 | 74 | 135 | 3.0 | 8.0 | 0.00 | 0.00 | 0.00 | 88 | 1005.1 |
| 20260831034539 | 74 | 174 | 3.0 | 8.0 | 0.00 | 0.00 | 0.00 | 88 | 1005.3 |
| 20260831034035 | 74 | 144 | 1.0 | 7.0 | 0.00 | 0.00 | 0.00 | 88 | 1005.5 |
| 20260831033539 | 75 | 157 | 3.0 | 7.0 | 0.00 | 0.00 | 0.00 | 88 | 1005.6 |
| 20260831033036 | 75 | 163 | 2.0 | 8.0 | 0.00 | 0.00 | 0.00 | 87 | 1005.8 |
| 20260831032534 | 75 | 148 | 2.0 | 8.0 | 0.00 | 0.00 | 0.00 | 87 | 1005.8 |
| 20260831032037 | 75 | 152 | 4.0 | 9.0 | 0.00 | 0.00 | 0.00 | 87 | 1005.9 |
| 20260831031545 | 75 | 153 | 5.0 | 10.0 | 0.00 | 0.00 | 0.00 | 87 | 1005.9 |
| 20260831031033 | 75 | 102 | 5.0 | 10.0 | 0.00 | 0.00 | 0.00 | 86 | 1006.0 |
| 20260831030534 | 76 | 134 | 2.0 | 9.0 | 0.00 | 0.00 | 0.00 | 86 | 1006.0 |
| 20260831030036 | 76 | 159 | 3.0 | 8.0 | 0.00 | 0.00 | 0.00 | 86 | 1006.1 |
| 20260831025534 | 76 | 138 | 3.0 | 9.0 | 0.00 | 0.00 | 0.00 | 85 | 1006.2 |
| 20260831025034 | 76 | 136 | 3.0 | 9.0 | 0.00 | 0.00 | 0.00 | 85 | 1006.2 |
| 20260831024533 | 76 | 142 | 1.0 | 8.0 | 0.00 | 0.00 | 0.00 | 85 | 1006.4 |
| 20260831024032 | 76 | 136 | 4.0 | 8.0 | 0.00 | 0.00 | 0.00 | 85 | 1006.4 |
| 20260831023534 | 76 | 165 | 3.0 | 7.0 | 0.00 | 0.00 | 0.00 | 84 | 1006.3 |
| 20260831023033 | 77 | 144 | 2.0 | 8.0 | 0.00 | 0.00 | 0.00 | 84 | 1006.3 |
| 20260831022532 | 77 | 130 | 0.0 | 8.0 | 0.00 | 0.00 | 0.00 | 84 | 1006.4 |
| 20260831022032 | 77 | 158 | 2.0 | 8.0 | 0.00 | 0.00 | 0.00 | 84 | 1006.5 |
| 20260831021533 | 77 | 148 | 3.0 | 8.0 | 0.00 | 0.00 | 0.00 | 84 | 1006.4 |
| 20260831021032 | 77 | 147 | 4.0 | 10.0 | 0.00 | 0.00 | 0.00 | 84 | 1006.2 |
| 20260831020534 | 77 | 155 | 3.0 | 10.0 | 0.00 | 0.00 | 0.00 | 83 | 1006.2 |
| 20260831020034 | 77 | 159 | 4.0 | 11.0 | 0.00 | 0.00 | 0.00 | 83 | 1006.1 |
| 20260831015536 | 77 | 166 | 5.0 | 12.0 | 0.00 | 0.00 | 0.00 | 83 | 1006.0 |
| 20260831015032 | 78 | 157 | 4.0 | 12.0 | 0.00 | 0.00 | 0.00 | 83 | 1006.0 |
| 20260831014537 | 78 | 163 | 6.0 | 11.0 | 0.00 | 0.00 | 0.00 | 82 | 1005.9 |
| 20260831014031 | 78 | 132 | 5.0 | 11.0 | 0.00 | 0.00 | 0.00 | 82 | 1005.8 |
| 20260831013531 | 78 | 177 | 4.0 | 11.0 | 0.00 | 0.00 | 0.00 | 82 | 1005.6 |
| 20260831013040 | 78 | 153 | 6.0 | 11.0 | 0.00 | 0.00 | 0.00 | 82 | 1005.3 |
| 20260831012531 | 78 | 138 | 2.0 | 9.0 | 0.00 | 0.00 | 0.00 | 82 | 1005.2 |
| 20260831012031 | 78 | 144 | 2.0 | 9.0 | 0.00 | 0.00 | 0.00 | 82 | 1005.1 |
| 20260831011531 | 78 | 130 | 3.0 | 8.0 | 0.00 | 0.00 | 0.00 | 81 | 1005.1 |
| 20260831011029 | 78 | 156 | 2.0 | 10.0 | 0.00 | 0.00 | 0.00 | 81 | 1005.2 |
| 20260831010530 | 78 | 148 | 4.0 | 10.0 | 0.00 | 0.00 | 0.00 | 81 | 1005.1 |
| 20260831010030 | 78 | 129 | 2.0 | 11.0 | 0.00 | 0.00 | 0.00 | 81 | 1005.0 |
| 20260831005530 | 78 | 70 | 5.0 | 11.0 | 0.00 | 0.00 | 0.00 | 80 | 1005.0 |
| 20260831005030 | 79 | 355 | 3.0 | 10.0 | 0.00 | 0.00 | 0.00 | 80 | 1004.9 |
| 20260831004529 | 79 | 138 | 3.0 | 13.0 | 0.00 | 0.00 | 0.00 | 80 | 1004.9 |
| 20260831004030 | 79 | 121 | 5.0 | 13.0 | 0.00 | 0.00 | 0.00 | 79 | 1005.0 |
| 20260831003531 | 79 | 43 | 4.0 | 11.0 | 0.00 | 0.00 | 0.00 | 78 | 1005.0 |
| 20260831003028 | 80 | 49 | 5.0 | 14.0 | 0.00 | 0.00 | 0.00 | 78 | 1005.0 |
| 20260831002527 | 80 | 118 | 7.0 | 14.0 | 0.00 | 0.00 | 0.00 | 78 | 1005.0 |
| 20260831002030 | 80 | 153 | 6.0 | 12.0 | 0.00 | 0.00 | 0.00 | 78 | 1005.0 |
| 20260831001533 | 80 | 107 | 5.0 | 14.0 | 0.00 | 0.00 | 0.00 | 78 | 1005.2 |
| 20260831001027 | 80 | 151 | 5.0 | 12.0 | 0.00 | 0.00 | 0.00 | 78 | 1005.2 |
| 20260831000526 | 80 | 119 | 6.0 | 12.0 | 0.00 | 0.00 | 0.00 | 78 | 1005.3 |
| 20260831000024 | 80 | 131 | 4.0 | 11.0 | 0.00 | 0.00 | 0.00 | 78 | 1005.5 |
| 20260830235525 | 80 | 335 | 5.0 | 11.0 | 0.00 | 0.00 | 0.00 | 77 | 1005.6 |
| 20260830235028 | 80 | 149 | 5.0 | 14.0 | 0.00 | 0.00 | 0.00 | 77 | 1005.6 |
| 20260830234525 | 80 | 104 | 6.0 | 14.0 | 0.00 | 0.00 | 0.00 | 77 | 1005.7 |
| 20260830234024 | 80 | 83 | 5.0 | 14.0 | 0.00 | 0.00 | 0.00 | 76 | 1005.7 |
| 20260830233527 | 80 | 80 | 4.0 | 14.0 | 0.00 | 0.00 | 0.00 | 76 | 1005.5 |
| 20260830233022 | 81 | 141 | 6.0 | 14.0 | 0.00 | 0.00 | 0.00 | 75 | 1005.6 |
| 20260830232522 | 81 | 24 | 5.0 | 14.0 | 0.00 | 0.00 | 0.00 | 75 | 1005.7 |
| 20260830232025 | 81 | 9 | 6.0 | 15.0 | 0.00 | 0.00 | 0.00 | 75 | 1005.7 |
| 20260830231520 | 81 | 142 | 7.0 | 15.0 | 0.00 | 0.00 | 0.00 | 75 | 1005.6 |
| 20260830231021 | 81 | 145 | 7.0 | 14.0 | 0.00 | 0.00 | 0.00 | 76 | 1005.6 |
| 20260830230520 | 81 | 89 | 7.0 | 14.0 | 0.00 | 0.00 | 0.00 | 75 | 1005.7 |
| 20260830230020 | 81 | 52 | 6.0 | 14.0 | 0.00 | 0.00 | 0.00 | 75 | 1005.6 |
| 20260830225519 | 80 | 74 | 6.0 | 16.0 | 0.00 | 0.00 | 0.00 | 76 | 1005.6 |
| 20260830225021 | 80 | 45 | 6.0 | 16.0 | 0.00 | 0.00 | 0.00 | 76 | 1005.7 |
| 20260830224519 | 80 | 68 | 5.0 | 15.0 | 0.00 | 0.00 | 0.00 | 76 | 1005.8 |
| 20260830224021 | 80 | 34 | 7.0 | 15.0 | 0.00 | 0.00 | 0.00 | 76 | 1005.8 |
| 20260830223517 | 80 | 78 | 4.0 | 11.0 | 0.00 | 0.00 | 0.00 | 77 | 1005.9 |
| 20260830223023 | 80 | 130 | 4.0 | 13.0 | 0.00 | 0.00 | 0.00 | 76 | 1006.0 |
| 20260830222516 | 80 | 131 | 5.0 | 15.0 | 0.00 | 0.00 | 0.00 | 76 | 1006.1 |
| 20260830222019 | 80 | 71 | 6.0 | 15.0 | 0.00 | 0.00 | 0.00 | 76 | 1006.2 |
| 20260830221518 | 80 | 140 | 7.0 | 13.0 | 0.00 | 0.00 | 0.00 | 76 | 1006.3 |
| 20260830221015 | 80 | 64 | 4.0 | 12.0 | 0.00 | 0.00 | 0.00 | 76 | 1006.2 |
| 20260830220514 | 80 | 92 | 7.0 | 11.0 | 0.00 | 0.00 | 0.00 | 75 | 1006.4 |
| 20260830220014 | 80 | 89 | 5.0 | 15.0 | 0.00 | 0.00 | 0.00 | 75 | 1006.5 |
| 20260830215514 | 81 | 69 | 7.0 | 15.0 | 0.00 | 0.00 | 0.00 | 75 | 1006.5 |
| 20260830215013 | 80 | 103 | 8.0 | 15.0 | 0.00 | 0.00 | 0.00 | 76 | 1006.4 |
| 20260830214517 | 80 | 82 | 9.0 | 15.0 | 0.00 | 0.00 | 0.00 | 76 | 1006.5 |
| 20260830214011 | 80 | 103 | 6.0 | 13.0 | 0.00 | 0.00 | 0.00 | 75 | 1006.5 |
| 20260830213514 | 80 | 107 | 7.0 | 16.0 | 0.00 | 0.00 | 0.00 | 75 | 1006.6 |
| 20260830213010 | 80 | 52 | 7.0 | 16.0 | 0.00 | 0.00 | 0.00 | 75 | 1006.6 |
| 20260830212510 | 80 | 81 | 7.0 | 16.0 | 0.00 | 0.00 | 0.00 | 75 | 1006.7 |
| 20260830212010 | 79 | 82 | 8.0 | 16.0 | 0.00 | 0.00 | 0.00 | 77 | 1006.8 |
| 20260830211511 | 79 | 97 | 7.0 | 13.0 | 0.00 | 0.00 | 0.00 | 76 | 1006.8 |
| 20260830211008 | 79 | 71 | 7.0 | 13.0 | 0.00 | 0.00 | 0.00 | 76 | 1006.9 |
| 20260830210508 | 79 | 56 | 6.0 | 15.0 | 0.00 | 0.00 | 0.00 | 75 | 1006.9 |
| 20260830210008 | 80 | 112 | 5.0 | 15.0 | 0.00 | 0.00 | 0.00 | 75 | 1006.9 |
| 20260830205510 | 80 | 79 | 7.0 | 13.0 | 0.00 | 0.00 | 0.00 | 75 | 1007.0 |
| 20260830205007 | 80 | 53 | 5.0 | 14.0 | 0.00 | 0.00 | 0.00 | 75 | 1007.1 |
| 20260830204507 | 80 | 83 | 7.0 | 17.0 | 0.00 | 0.00 | 0.00 | 76 | 1007.2 |
| 20260830204005 | 80 | 103 | 8.0 | 17.0 | 0.00 | 0.00 | 0.00 | 75 | 1007.1 |
| 20260830203504 | 80 | 100 | 8.0 | 16.0 | 0.00 | 0.00 | 0.00 | 75 | 1007.1 |
| 20260830203013 | 80 | 98 | 7.0 | 15.0 | 0.00 | 0.00 | 0.00 | 76 | 1007.2 |
| 20260830202504 | 80 | 108 | 8.0 | 15.0 | 0.00 | 0.00 | 0.00 | 76 | 1007.2 |
| 20260830202003 | 79 | 105 | 9.0 | 14.0 | 0.00 | 0.00 | 0.00 | 77 | 1007.2 |
| 20260830201502 | 79 | 98 | 8.0 | 14.0 | 0.00 | 0.00 | 0.00 | 77 | 1007.3 |
| 20260830201003 | 79 | 35 | 6.0 | 14.0 | 0.00 | 0.00 | 0.00 | 76 | 1007.5 |
| 20260830200601 | 79 | 57 | 8.0 | 14.0 | 0.00 | 0.00 | 0.00 | 76 | 1007.6 |
| 20260830200113 | 78 | 64 | 6.0 | 15.0 | 0.00 | 0.00 | 0.00 | 78 | 1007.7 |
| 20260830195559 | 77 | 82 | 9.0 | 15.0 | 0.00 | 0.00 | 0.00 | 78 | 1007.9 |
| 20260830195056 | 77 | 91 | 6.0 | 12.0 | 0.00 | 0.00 | 0.00 | 78 | 1008.1 |
| 20260830194630 | 77 | 88 | 6.0 | 12.0 | 0.00 | 0.00 | 0.00 | 78 | 1008.3 |
| 20260830194057 | 77 | 87 | 4.0 | 11.0 | 0.00 | 0.00 | 0.00 | 78 | 1008.3 |
| 20260830193559 | 78 | 59 | 5.0 | 10.0 | 0.00 | 0.00 | 0.00 | 78 | 1008.4 |
| 20260830193056 | 78 | 44 | 4.0 | 11.0 | 0.00 | 0.00 | 0.00 | 78 | 1008.3 |
| 20260830192555 | 78 | 58 | 6.0 | 11.0 | 0.00 | 0.00 | 0.00 | 76 | 1008.4 |
| 20260830192054 | 78 | 132 | 4.0 | 10.0 | 0.00 | 0.00 | 0.00 | 77 | 1008.5 |
| 20260830191600 | 78 | 83 | 4.0 | 10.0 | 0.00 | 0.00 | 0.00 | 78 | 1008.5 |
| 20260830191057 | 77 | 157 | 4.0 | 12.0 | 0.00 | 0.00 | 0.00 | 78 | 1008.5 |
| 20260830190555 | 77 | 88 | 4.0 | 12.0 | 0.00 | 0.00 | 0.00 | 78 | 1008.6 |
| 20260830190056 | 77 | 38 | 5.0 | 12.0 | 0.00 | 0.00 | 0.00 | 78 | 1008.5 |
| 20260830185555 | 78 | 82 | 4.0 | 10.0 | 0.00 | 0.00 | 0.00 | 77 | 1008.5 |
| 20260830185054 | 78 | 161 | 5.0 | 16.0 | 0.00 | 0.00 | 0.00 | 77 | 1008.4 |
| 20260830184555 | 78 | 121 | 6.0 | 16.0 | 0.00 | 0.00 | 0.00 | 77 | 1008.3 |
| 20260830184054 | 78 | 141 | 5.0 | 14.0 | 0.00 | 0.00 | 0.00 | 78 | 1008.3 |
| 20260830183558 | 78 | 131 | 5.0 | 11.0 | 0.00 | 0.00 | 0.00 | 77 | 1008.3 |
| 20260830183100 | 78 | 121 | 3.0 | 11.0 | 0.00 | 0.00 | 0.00 | 77 | 1008.2 |
| 20260830182556 | 78 | 144 | 4.0 | 14.0 | 0.00 | 0.00 | 0.00 | 76 | 1008.2 |
| 20260830182053 | 79 | 92 | 7.0 | 18.0 | 0.00 | 0.00 | 0.00 | 75 | 1008.3 |
| 20260830181553 | 79 | 127 | 11.0 | 18.0 | 0.00 | 0.00 | 0.00 | 74 | 1008.5 |
| 20260830181054 | 80 | 149 | 5.0 | 12.0 | 0.00 | 0.00 | 0.00 | 74 | 1008.4 |
| 20260830180551 | 79 | 107 | 4.0 | 12.0 | 0.00 | 0.00 | 0.00 | 75 | 1008.5 |
| 20260830180049 | 78 | 140 | 3.0 | 10.0 | 0.00 | 0.00 | 0.00 | 78 | 1008.4 |
| 20260830175548 | 77 | 157 | 3.0 | 10.0 | 0.00 | 0.00 | 0.00 | 77 | 1008.4 |
| 20260830175049 | 78 | 46 | 4.0 | 11.0 | 0.00 | 0.00 | 0.00 | 76 | 1008.4 |
| 20260830174554 | 78 | 163 | 5.0 | 12.0 | 0.00 | 0.00 | 0.00 | 77 | 1008.5 |
| 20260830174052 | 78 | 75 | 5.0 | 14.0 | 0.00 | 0.00 | 0.00 | 77 | 1008.5 |
| 20260830173548 | 78 | 82 | 5.0 | 13.0 | 0.00 | 0.00 | 0.00 | 76 | 1008.7 |
| 20260830173103 | 77 | 150 | 6.0 | 11.0 | 0.00 | 0.00 | 0.00 | 79 | 1008.6 |
| 20260830172545 | 76 | 120 | 4.0 | 11.0 | 0.00 | 0.00 | 0.00 | 79 | 1008.5 |
| 20260830172045 | 76 | 89 | 5.0 | 16.0 | 0.00 | 0.00 | 0.00 | 79 | 1008.5 |
| 20260830171549 | 76 | 37 | 8.0 | 16.0 | 0.00 | 0.00 | 0.00 | 78 | 1008.5 |
| 20260830171045 | 77 | 77 | 6.0 | 12.0 | 0.00 | 0.00 | 0.00 | 79 | 1008.5 |
| 20260830170547 | 76 | 128 | 6.0 | 12.0 | 0.00 | 0.00 | 0.00 | 81 | 1008.5 |
| 20260830170052 | 75 | 105 | 6.0 | 12.0 | 0.00 | 0.00 | 0.00 | 80 | 1008.5 |
| 20260830165544 | 75 | 81 | 5.0 | 10.0 | 0.00 | 0.00 | 0.00 | 81 | 1008.5 |
| 20260830165044 | 75 | 111 | 5.0 | 14.0 | 0.00 | 0.00 | 0.00 | 81 | 1008.5 |
| 20260830164552 | 75 | 166 | 6.0 | 14.0 | 0.00 | 0.00 | 0.00 | 81 | 1008.4 |
| 20260830164044 | 75 | 176 | 4.0 | 12.0 | 0.00 | 0.00 | 0.00 | 80 | 1008.4 |
| 20260830163543 | 75 | 74 | 6.0 | 12.0 | 0.00 | 0.00 | 0.00 | 80 | 1008.4 |
| 20260830163054 | 76 | 30 | 7.0 | 13.0 | 0.00 | 0.00 | 0.00 | 79 | 1008.4 |
| 20260830162542 | 76 | 107 | 5.0 | 14.0 | 0.00 | 0.00 | 0.00 | 79 | 1008.5 |
| 20260830162041 | 77 | 127 | 4.0 | 13.0 | 0.00 | 0.00 | 0.00 | 79 | 1008.4 |
| 20260830161559 | 76 | 71 | 6.0 | 12.0 | 0.00 | 0.00 | 0.00 | 80 | 1008.3 |
| 20260830161041 | 76 | 69 | 7.0 | 13.0 | 0.00 | 0.00 | 0.00 | 80 | 1008.6 |
| 20260830160540 | 76 | 97 | 6.0 | 14.0 | 0.00 | 0.00 | 0.00 | 80 | 1008.6 |
| 20260830160040 | 76 | 111 | 5.0 | 14.0 | 0.00 | 0.00 | 0.00 | 79 | 1008.7 |
| 20260830155539 | 76 | 159 | 4.0 | 10.0 | 0.00 | 0.00 | 0.00 | 81 | 1008.7 |
| 20260830155038 | 75 | 60 | 5.0 | 12.0 | 0.00 | 0.00 | 0.00 | 83 | 1008.6 |
| 20260830154536 | 74 | 77 | 6.0 | 12.0 | 0.00 | 0.00 | 0.00 | 84 | 1008.7 |
| 20260830154038 | 74 | 85 | 6.0 | 13.0 | 0.00 | 0.00 | 0.00 | 83 | 1008.6 |
| 20260830153537 | 75 | 78 | 8.0 | 13.0 | 0.00 | 0.00 | 0.00 | 82 | 1008.6 |
| 20260830153045 | 75 | 120 | 6.0 | 13.0 | 0.00 | 0.00 | 0.00 | 82 | 1008.7 |
| 20260830152533 | 74 | 63 | 4.0 | 9.0 | 0.00 | 0.00 | 0.00 | 84 | 1008.7 |
| 20260830152033 | 74 | 109 | 5.0 | 13.0 | 0.00 | 0.00 | 0.00 | 84 | 1008.7 |
| 20260830151534 | 74 | 70 | 5.0 | 13.0 | 0.00 | 0.00 | 0.00 | 84 | 1008.7 |
| 20260830151034 | 74 | 108 | 4.0 | 13.0 | 0.00 | 0.00 | 0.00 | 83 | 1008.7 |
| 20260830150532 | 74 | 70 | 7.0 | 13.0 | 0.00 | 0.00 | 0.00 | 84 | 1008.8 |
| 20260830150032 | 74 | 111 | 6.0 | 12.0 | 0.00 | 0.00 | 0.00 | 84 | 1008.9 |
| 20260830145530 | 74 | 67 | 6.0 | 13.0 | 0.00 | 0.01 | 0.00 | 85 | 1009.1 |
| 20260830145034 | 74 | 87 | 5.0 | 13.0 | 0.00 | 0.01 | 0.00 | 85 | 1009.2 |
| 20260830144529 | 73 | 91 | 3.0 | 10.0 | 0.00 | 0.01 | 0.00 | 85 | 1009.1 |
| 20260830144028 | 73 | 62 | 6.0 | 10.0 | 0.00 | 0.01 | 0.00 | 85 | 1009.2 |
| 20260830143527 | 73 | 56 | 3.0 | 10.0 | 0.00 | 0.01 | 0.00 | 86 | 1009.3 |
| 20260830143025 | 73 | 106 | 3.0 | 10.0 | 0.00 | 0.01 | 0.00 | 87 | 1009.3 |
| 20260830142523 | 72 | 86 | 6.0 | 10.0 | 0.00 | 0.01 | 0.00 | 88 | 1009.3 |
| 20260830142023 | 71 | 66 | 4.0 | 9.0 | 0.00 | 0.01 | 0.00 | 89 | 1009.3 |